OpenBCM V2.0.3 (Linux)

Packet Radio Mailbox

IZ3LSV

[San Dona' di P. JN]

 Login: GUEST





  
LU1HVK > KEP      05.09.19 18:15l 244 Lines 12026 Bytes #999 (0) @ WW
BID : 30805_LU1HVK
Read: GUEST
Subj: TLE 02 09
Path: IZ3LSV<DB0ERF<DB0RES<DB0OVN<DB0GOS<ON0AR<GB7CIP<N3HYM<IV3BVK<IK5FKA<
      LU9HGS<LU1HVK
Sent: 190902/1602Z 30805@LU1HVK.2594.CBA.ARG.SA LinBPQ6.0.18

                         _    _   _ _ _   ___     ___  __
                        | |  | | | / | | | \ \   / / |/ /
                        | |  | | | | | |_| |\ \ / /| ' /
                        | |__| |_| | |  _  | \ V / | . \
                        |_____\___/|_|_| |_|  \_/  |_|\_\

     BBS/NODO - CORDOBA (LEONES-FF87UH) - LU1HVK-4 NODO - LU1HVK-3 APRS

+----------------------------------------------------------------------------+
OSCAR 7
1  7530U 74089B   19244.87738267 -.00000042  00000-0  18930-4 0  9993
2  7530 101.7524 211.7883 0011871 200.7091 213.9067 12.53639519 49942
OSCAR 11 (UoSAT 2)
1 14781U 84021B   19245.12939449  .00000064  00000-0  13913-4 0  9999
2 14781  97.6080 266.2661 0009980  75.0763 285.1556 14.83103344909940
OSCAR 19 (LUSAT)
1 20442U 90005G   19245.43140410 -.00000008  00000-0  13549-4 0  9999
2 20442  98.6522 187.3203 0010687 288.6254  71.3769 14.32931461547224
EYESAT A
1 22825U 93061C   19244.92388393 -.00000018 +00000-0 +10895-4 0  9990
2 22825 098.9086 235.2959 0009149 134.6744 225.5184 14.30065313352438
ITAMSAT
1 22826U 93061D   19245.18782646 -.00000014  00000-0  12523-4 0  9995
2 22826  98.9027 235.5480 0009807 123.8025 236.4091 14.30399242352944
RADIO ROSTO
1 23439U 94085A   19244.90296325 -.00000054 +00000-0 -33276-3 0  9998
2 23439 064.8200 354.4977 0145735 098.6501 263.0962 11.27568354016373
JAS 2
1 24278U 96046B   19245.49139619 -.00000033  00000-0  71321-6 0  9998
2 24278  98.5486  28.6485 0351044  43.6221 319.2108 13.53093148138051
TECHSAT 1B
1 25397U 98043D   19245.10113938 -.00000015  00000-0  12602-4 0  9999
2 25397  98.6917 184.3446 0001690 136.1629 223.9684 14.23669672 98605
ISS (ZARYA)
1 25544U 98067A   19245.52638889  .00000555  00000-0  17546-4 0  9992
2 25544  51.6455 337.6382 0007913 357.2306 194.3491 15.50417739187252
PCSAT
1 26931U 01043C   19244.93803225 -.00000020 +00000-0 +24116-4 0  9992
2 26931 067.0514 169.5079 0007482 272.9772 087.0472 14.30550735935660
SAUDISAT 1C
1 27607U 02058C   19244.91187610 -.00000021 +00000-0 +17964-4 0  9995
2 27607 064.5548 179.6187 0078011 242.0283 117.2909 14.75568031898007
CUTE-1
1 27844U 03031E   19245.49459621  .00000027  00000-0  32057-4 0  9993
2 27844  98.6850 252.5763 0010063 165.1361 195.0114 14.22192152839062
CUBESAT XI 4
1 27848U 03031J   19245.01571993  .00000019  00000-0  28617-4 0  9990
2 27848  98.6925 252.6205 0009715 177.9055 182.2164 14.21785597838842
MOZHAYETS 4
1 27939U 03042A   19245.42771599 -.00000001  00000-0  84847-5 0  9992
2 27939  98.0515  19.8116 0012979 182.6692 177.4455 14.66798904851649
CUBESAT XI 5
1 28895U 05043F   19245.39026395  .00000099  00000-0  27788-4 0  9996
2 28895  97.9698  25.5714 0018135 111.4493 248.8646 14.63686165738560
CUTE-1.7+APD II
1 32785U 08021C   19245.18626727  .00000217  00000-0  29012-4 0  9994
2 32785  97.5530 241.3516 0013585  19.4661 340.7072 14.88337464614919
DELFI C3
1 32789U 08021G   19245.17923969  .00000900  00000-0  63939-4 0  9990
2 32789  97.4584 292.5462 0011083 220.9182 139.1215 15.07077747618333
SEEDS
1 32791U 08021J   19245.01034390  .00000346  00000-0  40476-4 0  9992
2 32791  97.5299 247.2301 0013136 354.3531   5.7538 14.90858783615331
YUBELEINY
1 32953U 08025A   19245.54084879  .00000020  00000-0  75656-4 0  9998
2 32953  82.5007  97.5990 0019275 326.3887  33.5969 12.43091056511739
PRISM (HITOMI)
1 33493U 09002B   19245.34275491  .00001129  00000-0  10430-3 0  9993
2 33493  98.1203 169.1650 0013609 296.2828  63.6993 14.96715829576467
KKS-1 (KISEKI)
1 33499U 09002H   19244.88331890 +.00000072 +00000-0 +18669-4 0  9992
2 33499 098.3461 085.9740 0008599 335.1515 024.9278 14.75458332569888
SWISSCUBE
1 35932U 09051B   19245.45007290  .00000102  00000-0  34209-4 0  9990
2 35932  98.5955  53.6720 0006530 297.3955  62.6577 14.56304673527806
BEESAT
1 35933U 09051C   19244.89885436 +.00000070 +00000-0 +26834-4 0  9993
2 35933 098.5976 054.8952 0004916 316.9348 043.1463 14.56391096527757
ITUPSAT 1
1 35935U 09051E   19245.13743372  .00000045  00000-0  21537-4 0  9992
2 35935  98.6086  55.3734 0007179 310.5802  49.4769 14.55548289527615
XIWANG-1 (HOPE-1)
1 36122U 09072B   19244.75233651 -.00000003 +00000-0 +10181-3 0  9992
2 36122 100.0749 243.6096 0007250 169.5479 190.5785 13.16351174466757
TISAT 1
1 36799U 10035E   19244.97357341  .00000481  00000-0  54600-4 0  9994
2 36799  98.1654  39.6653 0011982 193.0803 167.0105 14.91143568495983
JUGNU
1 37839U 11058B   19245.32946312  .00000324  00000-0  30959-4 0  9995
2 37839  19.9601 236.1013 0019131  81.1012  53.2094 14.12657239407961
SRMSAT
1 37841U 11058D   19245.18541713  .00000317  00000-0  29090-4 0  9994
2 37841  19.9721 295.3143 0011770 307.1008  91.4066 14.10637635407368
M-CUBED/EXP-1 PRIME
1 37855U 11061F   19245.03131745  .00001049  00000-0  60298-4 0  9995
2 37855 101.7104 179.2990 0173054 213.4036 145.6163 15.05553785428116
HORYU 2
1 38340U 12025D   19245.10881601  .00000139  00000-0  28371-4 0  9992
2 38340  98.3236 285.9397 0010373 240.3929 119.6247 14.75742648392289
STRAND 1
1 39090U 13009E   19245.50435149  .00000003  00000-0  16235-4 0  9990
2 39090  98.4823  90.1684 0010306  66.4324 293.7943 14.35095065341261
SOMP
1 39134U 13015E   19244.94666581 +.00001162 +00000-0 +61984-4 0  9997
2 39134 064.8632 136.6052 0035124 290.6836 069.0527 15.20282089351659
BEESAT 3
1 39135U 13015F   19244.93675636 +.00000917 +00000-0 +54891-4 0  9994
2 39135 064.8693 156.0003 0031377 303.7144 056.0991 15.17569669351270
BEESAT 2
1 39136U 13015G   19244.93643828 +.00001036 +00000-0 +61893-4 0  9996
2 39136 064.8686 160.0386 0023324 304.7484 055.1445 15.16985811351198
CUBEBUG 1
1 39153U 13018D   19245.25260692  .00000185  00000-0  31126-4 0  9998
2 39153  97.9804 342.9615 0015902 317.1995  42.7978 14.80588325342990
ZACUBE
1 39417U 13066B   19245.03185899  .00000177  00000-0  28471-4 0  9995
2 39417  97.5626 254.3001 0059828 145.7335 214.7762 14.81140789312194
TRITON 1
1 39427U 13066M   19245.46237463  .00000209  00000-0  41687-4 0  9998
2 39427  97.6838 218.1879 0112347 283.1362  75.7326 14.67871886309454
GOMX 1
1 39430U 13066Q   19245.46000005  .00000167  00000-0  39260-4 0  9999
2 39430  97.7518 197.0461 0151878  15.7993 344.7869 14.59276587307656
HUMSAT D
1 39433U 13066T   19245.11916332  .00000320  00000-0  36461-4 0  9994
2 39433  97.5476 289.5182 0031948  51.1368 309.2694 14.92236369314327
CUBEBUG 2
1 39440U 13066AA  19244.93928480 +.00000159 +00000-0 +29085-4 0  9992
2 39440 097.6060 238.9483 0079640 199.5059 160.3100 14.75878726309874
FUNCUBE 1
1 39444U 13066AE  19245.53089543  .00000233  00000-0  34818-4 0  9994
2 39444  97.5603 256.7896 0059139 137.7423 222.8370 14.81965204311169
UWE-3
1 39446U 13066AG  19245.49145425  .00000175  00000-0  29852-4 0  9990
2 39446  97.5835 246.5708 0070195 171.4515 188.7911 14.78413793310469
SPROUT
1 39770U 14029E   19245.51663219  .00000310  00000-0  40386-4 0  9995
2 39770  97.8882 348.3330 0008228 189.0561 171.0509 14.87400211286102
UNISAT 6
1 40012U 14033C   19245.16306266  .00000166  00000-0  32101-4 0  9993
2 40012  97.7475 108.4865 0057404 213.2584 146.5013 14.74000554279801
DUCHIFAT 1
1 40021U 14033M   19244.79252377  .00000362  00000-0  42706-4 0  9994
2 40021  97.9226 169.6340 0013269 156.2329 203.9504 14.90668471282733
QB50P1
1 40025U 14033R   19244.76525770  .00000205  00000-0  27794-4 0  9991
2 40025  97.9031 164.3226 0012619 165.8974 194.2598 14.88972497282497
CHUBUSAT 1
1 40300U 14070C   19245.25209922  .00000550  00000-0  26889-4 0  9998
2 40300  97.3226 317.5106 0020308 146.8408 250.6548 15.22146881267514
NUDT-PHONESAT
1 40900U 15049B   19245.40710274  .00001639  00000-0  72682-4 0  9996
2 40900  97.4374 254.0056 0011049 282.4875 186.2940 15.22976212219180
ZDPS 2A
1 40901U 15049C   19245.36631119  .00000578  00000-0  31903-4 0  9994
2 40901  97.4607 250.1006 0012270 305.2264 165.6490 15.17803529218718
ZDPS 2B
1 40902U 15049D   19245.39962084  .00001100  00000-0  57920-4 0  9995
2 40902  97.4551 247.5718 0012028 301.8279 165.9404 15.17648133218699
XW-2A
1 40903U 15049E   19245.45153964  .00001653  00000-0  40686-4 0  9996
2 40903  97.3315 288.6253 0012160 225.8160 248.9710 15.42032157221921
KAITUO 1A
1 40904U 15049F   19245.48330387  .00000717  00000-0  41399-4 0  9998
2 40904  97.4683 246.2012 0013373 310.2890 204.8239 15.15413119218474
OBJECT G
1 40905U 15049G   19245.41024741  .00000384  00000-0  24514-4 0  9996
2 40905  97.4728 243.6021 0014404 305.1605 161.4306 15.14329696218332
XW-2C
1 40906U 15049H   19245.52781019  .00000654  00000-0  37752-4 0  9995
2 40906  97.4689 246.3575 0013352 300.4267 177.8952 15.15733049218482
XW-2D
1 40907U 15049J   19245.56195716  .00000386  00000-0  23592-4 0  9992
2 40907  97.4667 246.0713 0012864 298.2592 180.0662 15.15922948218507
LILACSAT 2
1 40908U 15049K   19243.57037780 -.00000066  00000-0 -16772-7 0  9990
2 40908  97.4798 242.8681 0014787 311.8021 196.7161 15.13831999217988
XW-2F
1 40910U 15049M   19245.45895868  .00000751  00000-0  40910-4 0  9998
2 40910  97.4634 248.0770 0013218 289.7371 227.9506 15.17386011218509
XW-2B
1 40911U 15049N   19245.47253510  .00000716  00000-0  40884-4 0  9994
2 40911  97.4688 246.6455 0012698 299.0989 214.3080 15.15854533218383
KAITUO 1B
1 40912U 15049P   19245.50510170  .00000878  00000-0  44256-4 0  9993
2 40912  97.4503 251.8807 0013171 268.9575 242.3145 15.19709349218822
TIANWANG 1C (TW-1C)
1 40926U 15051B   19245.39936515  .00012649  00000-0  17674-3 0  9995
2 40926  97.1286 291.5091 0009665  88.6140  34.5207 15.56930201221936
TIANWANG 1B (TW-1B)
1 40927U 15051C   19245.42475992  .00011801  00000-0  17536-3 0  9993
2 40927  97.1314 290.7519 0009946 100.3481 318.2710 15.55269834221787
